Year,Month,Day,Hour,Minute,Value (Times are PST for temperature in C)
2006,07,19,00,00,14.80
2006,07,19,00,01,14.80
2006,07,19,00,02,14.80
2006,07,19,00,03,14.80
2006,07,19,00,04,14.80
2006,07,19,00,05,14.80
2006,07,19,00,06,14.80
2006,07,19,00,07,14.70
2006,07,19,00,08,14.70
2006,07,19,00,09,14.70
2006,07,19,00,10,14.70
2006,07,19,00,11,14.70
2006,07,19,00,12,14.70
2006,07,19,00,13,14.70
2006,07,19,00,14,14.60
2006,07,19,00,15,14.60
2006,07,19,00,16,14.60
2006,07,19,00,17,14.60
2006,07,19,00,18,14.60
2006,07,19,00,19,14.60
2006,07,19,00,20,14.60
2006,07,19,00,21,14.50
2006,07,19,00,22,14.50
2006,07,19,00,23,14.50
2006,07,19,00,24,14.50
2006,07,19,00,25,14.50
2006,07,19,00,26,14.40
2006,07,19,00,27,14.40
2006,07,19,00,28,14.40
2006,07,19,00,29,14.40
2006,07,19,00,30,14.40
2006,07,19,00,31,14.30
2006,07,19,00,32,14.30
2006,07,19,00,33,14.30
2006,07,19,00,34,14.20
2006,07,19,00,35,14.20
2006,07,19,00,36,14.20
2006,07,19,00,37,14.20
2006,07,19,00,38,14.20
2006,07,19,00,39,14.20
2006,07,19,00,40,14.20
2006,07,19,00,41,14.10
2006,07,19,00,42,14.10
2006,07,19,00,43,14.10
2006,07,19,00,44,14.00
2006,07,19,00,45,14.00
2006,07,19,00,46,14.00
2006,07,19,00,47,14.00
2006,07,19,00,48,14.00
2006,07,19,00,49,13.90
2006,07,19,00,50,13.90
2006,07,19,00,51,13.90
2006,07,19,00,52,13.90
2006,07,19,00,53,13.90
2006,07,19,00,54,13.90
2006,07,19,00,55,13.90
2006,07,19,00,56,13.90
2006,07,19,00,57,13.90
2006,07,19,00,58,13.90
2006,07,19,00,59,13.90
2006,07,19,01,00,13.90
2006,07,19,01,01,13.80
2006,07,19,01,02,13.80
2006,07,19,01,03,13.80
2006,07,19,01,04,13.80
2006,07,19,01,05,13.80
2006,07,19,01,06,13.80
2006,07,19,01,07,13.80
2006,07,19,01,08,13.80
2006,07,19,01,09,13.80
2006,07,19,01,10,13.70
2006,07,19,01,11,13.70
2006,07,19,01,12,13.70
2006,07,19,01,13,13.70
2006,07,19,01,14,13.70
2006,07,19,01,15,13.70
2006,07,19,01,16,13.70
2006,07,19,01,17,13.70
2006,07,19,01,18,13.70
2006,07,19,01,19,13.70
2006,07,19,01,20,13.70
2006,07,19,01,21,13.70
2006,07,19,01,22,13.70
2006,07,19,01,23,13.70
2006,07,19,01,24,13.70
2006,07,19,01,25,13.70
2006,07,19,01,26,13.70
2006,07,19,01,27,13.70
2006,07,19,01,28,13.70
2006,07,19,01,29,13.70
2006,07,19,01,30,13.70
2006,07,19,01,31,13.70
2006,07,19,01,32,13.70
2006,07,19,01,33,13.70
2006,07,19,01,34,13.70
2006,07,19,01,35,13.70
2006,07,19,01,36,13.70
2006,07,19,01,37,13.70
2006,07,19,01,38,13.70
2006,07,19,01,39,13.70
2006,07,19,01,40,13.70
2006,07,19,01,41,13.70
2006,07,19,01,42,13.70
2006,07,19,01,43,13.70
2006,07,19,01,44,13.70
2006,07,19,01,45,13.70
2006,07,19,01,46,13.70
2006,07,19,01,47,13.70
2006,07,19,01,48,13.60
2006,07,19,01,49,13.60
2006,07,19,01,50,13.60
2006,07,19,01,51,13.50
2006,07,19,01,52,13.50
2006,07,19,01,53,13.50
2006,07,19,01,54,13.50
2006,07,19,01,55,13.40
2006,07,19,01,56,13.40
2006,07,19,01,57,13.40
2006,07,19,01,58,13.40
2006,07,19,01,59,13.30
2006,07,19,02,00,13.30
2006,07,19,02,01,13.30
2006,07,19,02,02,13.30
2006,07,19,02,03,13.30
2006,07,19,02,04,13.30
2006,07,19,02,05,13.30
2006,07,19,02,06,13.30
2006,07,19,02,07,13.30
2006,07,19,02,08,13.30
2006,07,19,02,09,13.30
2006,07,19,02,10,13.20
2006,07,19,02,11,13.20
2006,07,19,02,12,13.20
2006,07,19,02,13,13.20
2006,07,19,02,14,13.20
2006,07,19,02,15,13.20
2006,07,19,02,16,13.10
2006,07,19,02,17,13.10
2006,07,19,02,18,13.10
2006,07,19,02,19,13.10
2006,07,19,02,20,13.10
2006,07,19,02,21,13.00
2006,07,19,02,22,13.00
2006,07,19,02,23,13.00
2006,07,19,02,24,13.00
2006,07,19,02,25,13.00
2006,07,19,02,26,13.00
2006,07,19,02,27,13.00
2006,07,19,02,28,12.90
2006,07,19,02,29,12.90
2006,07,19,02,30,12.90
2006,07,19,02,31,12.90
2006,07,19,02,32,12.90
2006,07,19,02,33,12.90
2006,07,19,02,34,12.90
2006,07,19,02,35,12.90
2006,07,19,02,36,12.90
2006,07,19,02,37,12.90
2006,07,19,02,38,12.80
2006,07,19,02,39,12.80
2006,07,19,02,40,12.80
2006,07,19,02,41,12.80
2006,07,19,02,42,12.80
2006,07,19,02,43,12.80
2006,07,19,02,44,12.80
2006,07,19,02,45,12.80
2006,07,19,02,46,12.80
2006,07,19,02,47,12.80
2006,07,19,02,48,12.80
2006,07,19,02,49,12.80
2006,07,19,02,50,12.80
2006,07,19,02,51,12.80
2006,07,19,02,52,12.80
2006,07,19,02,53,12.80
2006,07,19,02,54,12.70
2006,07,19,02,55,12.70
2006,07,19,02,56,12.70
2006,07,19,02,57,12.60
2006,07,19,02,58,12.60
2006,07,19,02,59,12.60
2006,07,19,03,00,12.60
2006,07,19,03,01,12.60
2006,07,19,03,02,12.60
2006,07,19,03,03,12.60
2006,07,19,03,04,12.60
2006,07,19,03,05,12.60
2006,07,19,03,06,12.60
2006,07,19,03,07,12.60
2006,07,19,03,08,12.60
2006,07,19,03,09,12.60
2006,07,19,03,10,12.60
2006,07,19,03,11,12.60
2006,07,19,03,12,12.50
2006,07,19,03,13,12.50
2006,07,19,03,14,12.50
2006,07,19,03,15,12.50
2006,07,19,03,16,12.40
2006,07,19,03,17,12.40
2006,07,19,03,18,12.40
2006,07,19,03,19,12.40
2006,07,19,03,20,12.40
2006,07,19,03,21,12.30
2006,07,19,03,22,12.30
2006,07,19,03,23,12.30
2006,07,19,03,24,12.30
2006,07,19,03,25,12.30
2006,07,19,03,26,12.30
2006,07,19,03,27,12.30
2006,07,19,03,28,12.20
2006,07,19,03,29,12.20
2006,07,19,03,30,12.20
2006,07,19,03,31,12.10
2006,07,19,03,32,12.10
2006,07,19,03,33,12.10
2006,07,19,03,34,12.00
2006,07,19,03,35,12.00
2006,07,19,03,36,12.00
2006,07,19,03,37,12.00
2006,07,19,03,38,11.90
2006,07,19,03,39,11.90
2006,07,19,03,40,11.90
2006,07,19,03,41,11.90
2006,07,19,03,42,11.90
2006,07,19,03,43,11.90
2006,07,19,03,44,11.80
2006,07,19,03,45,11.80
2006,07,19,03,46,11.80
2006,07,19,03,47,11.80
2006,07,19,03,48,11.80
2006,07,19,03,49,11.80
2006,07,19,03,50,11.80
2006,07,19,03,51,11.80
2006,07,19,03,52,11.80
2006,07,19,03,53,11.80
2006,07,19,03,54,11.80
2006,07,19,03,55,11.80
2006,07,19,03,56,11.80
2006,07,19,03,57,11.80
2006,07,19,03,58,11.80
2006,07,19,03,59,11.80
2006,07,19,04,00,11.70
2006,07,19,04,01,11.70
2006,07,19,04,02,11.70
2006,07,19,04,03,11.70
2006,07,19,04,04,11.70
2006,07,19,04,05,11.70
2006,07,19,04,06,11.70
2006,07,19,04,07,11.80
2006,07,19,04,08,11.80
2006,07,19,04,09,11.80
2006,07,19,04,10,11.80
2006,07,19,04,11,11.80
2006,07,19,04,12,11.80
2006,07,19,04,13,11.80
2006,07,19,04,14,11.80
2006,07,19,04,15,11.80
2006,07,19,04,16,11.80
2006,07,19,04,17,11.80
2006,07,19,04,18,11.80
2006,07,19,04,19,11.70
2006,07,19,04,20,11.70
2006,07,19,04,21,11.70
2006,07,19,04,22,11.70
2006,07,19,04,23,11.70
2006,07,19,04,24,11.70
2006,07,19,04,25,11.70
2006,07,19,04,26,11.70
2006,07,19,04,27,11.70
2006,07,19,04,28,11.70
2006,07,19,04,29,11.70
2006,07,19,04,30,11.70
2006,07,19,04,31,11.60
2006,07,19,04,32,11.60
2006,07,19,04,33,11.60
2006,07,19,04,34,11.60
2006,07,19,04,35,11.60
2006,07,19,04,36,11.60
2006,07,19,04,37,11.60
2006,07,19,04,38,11.60
2006,07,19,04,39,11.60
2006,07,19,04,40,11.60
2006,07,19,04,41,11.60
2006,07,19,04,42,11.60
2006,07,19,04,43,11.60
2006,07,19,04,44,11.60
2006,07,19,04,45,11.60
2006,07,19,04,46,11.40
2006,07,19,04,47,11.40
2006,07,19,04,48,11.40
2006,07,19,04,49,11.40
2006,07,19,04,50,11.40
2006,07,19,04,51,11.40
2006,07,19,04,52,11.40
2006,07,19,04,53,11.40
2006,07,19,04,54,11.40
2006,07,19,04,55,11.40
2006,07,19,04,56,11.30
2006,07,19,04,57,11.30
2006,07,19,04,58,11.30
2006,07,19,04,59,11.30
2006,07,19,05,00,11.30
2006,07,19,05,01,11.30
2006,07,19,05,02,11.30
2006,07,19,05,03,11.30
2006,07,19,05,04,11.30
2006,07,19,05,05,11.30
2006,07,19,05,06,11.30
2006,07,19,05,07,11.30
2006,07,19,05,08,11.30
2006,07,19,05,09,11.30
2006,07,19,05,10,11.30
2006,07,19,05,11,11.30
2006,07,19,05,12,11.30
2006,07,19,05,13,11.30
2006,07,19,05,14,11.30
2006,07,19,05,15,11.30
2006,07,19,05,16,11.30
2006,07,19,05,17,11.30
2006,07,19,05,18,11.30
2006,07,19,05,19,11.30
2006,07,19,05,20,11.30
2006,07,19,05,21,11.30
2006,07,19,05,22,11.30
2006,07,19,05,23,11.30
2006,07,19,05,24,11.30
2006,07,19,05,25,11.30
2006,07,19,05,26,11.30
2006,07,19,05,27,11.30
2006,07,19,05,28,11.30
2006,07,19,05,29,11.30
2006,07,19,05,30,11.30
2006,07,19,05,31,11.30
2006,07,19,05,32,11.30
2006,07,19,05,33,11.30
2006,07,19,05,34,11.30
2006,07,19,05,35,11.30
2006,07,19,05,36,11.30
2006,07,19,05,37,11.30
2006,07,19,05,38,11.30
2006,07,19,05,39,11.30
2006,07,19,05,40,11.30
2006,07,19,05,41,11.30
2006,07,19,05,42,11.30
2006,07,19,05,43,11.30
2006,07,19,05,44,11.30
2006,07,19,05,45,11.30
2006,07,19,05,46,11.30
2006,07,19,05,47,11.30
2006,07,19,05,48,11.30
2006,07,19,05,49,11.30
2006,07,19,05,50,11.30
2006,07,19,05,51,11.30
2006,07,19,05,52,11.30
2006,07,19,05,53,11.30
2006,07,19,05,54,11.30
2006,07,19,05,55,11.30
2006,07,19,05,56,11.30
2006,07,19,05,57,11.30
2006,07,19,05,58,11.30
2006,07,19,05,59,11.30
2006,07,19,06,00,11.30
2006,07,19,06,01,11.40
2006,07,19,06,02,11.40
2006,07,19,06,03,11.40
2006,07,19,06,04,11.40
2006,07,19,06,05,11.40
2006,07,19,06,06,11.40
2006,07,19,06,07,11.40
2006,07,19,06,08,11.40
2006,07,19,06,09,11.50
2006,07,19,06,10,11.60
2006,07,19,06,11,11.60
2006,07,19,06,12,11.60
2006,07,19,06,13,11.60
2006,07,19,06,14,11.60
2006,07,19,06,15,11.60
2006,07,19,06,16,11.60
2006,07,19,06,17,11.60
2006,07,19,06,18,11.70
2006,07,19,06,19,11.70
2006,07,19,06,20,11.70
2006,07,19,06,21,11.70
2006,07,19,06,22,11.70
2006,07,19,06,23,11.70
2006,07,19,06,24,11.70
2006,07,19,06,25,11.80
2006,07,19,06,26,11.80
2006,07,19,06,27,11.80
2006,07,19,06,28,11.80
2006,07,19,06,29,11.80
2006,07,19,06,30,11.80
2006,07,19,06,31,11.80
2006,07,19,06,32,11.80
2006,07,19,06,33,11.80
2006,07,19,06,34,11.80
2006,07,19,06,35,11.80
2006,07,19,06,36,11.80
2006,07,19,06,37,11.80
2006,07,19,06,38,11.80
2006,07,19,06,39,11.80
2006,07,19,06,40,11.80
2006,07,19,06,41,11.80
2006,07,19,06,42,11.90
2006,07,19,06,43,11.90
2006,07,19,06,44,11.90
2006,07,19,06,45,11.90
2006,07,19,06,46,12.00
2006,07,19,06,47,12.00
2006,07,19,06,48,12.00
2006,07,19,06,49,12.10
2006,07,19,06,50,12.10
2006,07,19,06,51,12.10
2006,07,19,06,52,12.10
2006,07,19,06,53,12.10
2006,07,19,06,54,12.10
2006,07,19,06,55,12.20
2006,07,19,06,56,12.20
2006,07,19,06,57,12.20
2006,07,19,06,58,12.20
2006,07,19,06,59,12.30
2006,07,19,07,00,12.30
2006,07,19,07,01,12.30
2006,07,19,07,02,12.30
2006,07,19,07,03,12.30
2006,07,19,07,04,12.30
2006,07,19,07,05,12.30
2006,07,19,07,06,12.30
2006,07,19,07,07,12.30
2006,07,19,07,08,12.30
2006,07,19,07,09,12.30
2006,07,19,07,10,12.20
2006,07,19,07,11,12.20
2006,07,19,07,12,12.10
2006,07,19,07,13,12.10
2006,07,19,07,14,12.10
2006,07,19,07,15,12.10
2006,07,19,07,16,12.00
2006,07,19,07,17,12.00
2006,07,19,07,18,12.00
2006,07,19,07,19,12.00
2006,07,19,07,20,12.00
2006,07,19,07,21,12.00
2006,07,19,07,22,12.10
2006,07,19,07,23,12.10
2006,07,19,07,24,12.10
2006,07,19,07,25,12.10
2006,07,19,07,26,12.10
2006,07,19,07,27,12.10
2006,07,19,07,28,12.10
2006,07,19,07,29,12.10
2006,07,19,07,30,12.10
2006,07,19,07,31,12.10
2006,07,19,07,32,12.10
2006,07,19,07,33,12.10
2006,07,19,07,34,12.20
2006,07,19,07,35,12.20
2006,07,19,07,36,12.20
2006,07,19,07,37,12.30
2006,07,19,07,38,12.30
2006,07,19,07,39,12.40
2006,07,19,07,40,12.40
2006,07,19,07,41,12.50
2006,07,19,07,42,12.50
2006,07,19,07,43,12.50
2006,07,19,07,44,12.50
2006,07,19,07,45,12.50
2006,07,19,07,46,12.60
2006,07,19,07,47,12.60
2006,07,19,07,48,12.60
2006,07,19,07,49,12.70
2006,07,19,07,50,12.70
2006,07,19,07,51,12.70
2006,07,19,07,52,12.70
2006,07,19,07,53,12.80
2006,07,19,07,54,12.80
2006,07,19,07,55,12.80
2006,07,19,07,56,12.80
2006,07,19,07,57,12.90
2006,07,19,07,58,12.90
2006,07,19,07,59,13.00
2006,07,19,08,00,13.00
2006,07,19,08,01,13.10
2006,07,19,08,02,13.10
2006,07,19,08,03,13.20
2006,07,19,08,04,13.30
2006,07,19,08,05,13.30
2006,07,19,08,06,13.40
2006,07,19,08,07,13.40
2006,07,19,08,08,13.50
2006,07,19,08,09,13.50
2006,07,19,08,10,13.60
2006,07,19,08,11,13.70
2006,07,19,08,12,13.80
2006,07,19,08,13,13.90
2006,07,19,08,14,14.00
2006,07,19,08,15,14.10
2006,07,19,08,16,14.10
2006,07,19,08,17,14.20
2006,07,19,08,18,14.20
2006,07,19,08,19,14.20
2006,07,19,08,20,14.30
2006,07,19,08,21,14.40
2006,07,19,08,22,14.40
2006,07,19,08,23,14.50
2006,07,19,08,24,14.50
2006,07,19,08,25,14.50
2006,07,19,08,26,14.60
2006,07,19,08,27,14.60
2006,07,19,08,28,14.70
2006,07,19,08,29,14.80
2006,07,19,08,30,14.80
2006,07,19,08,31,14.80
2006,07,19,08,32,14.90
2006,07,19,08,33,14.90
2006,07,19,08,34,15.00
2006,07,19,08,35,15.00
2006,07,19,08,36,15.10
2006,07,19,08,37,15.10
2006,07,19,08,38,15.20
2006,07,19,08,39,15.20
2006,07,19,08,40,15.30
2006,07,19,08,41,15.30
2006,07,19,08,42,15.30
2006,07,19,08,43,15.30
2006,07,19,08,44,15.30
2006,07,19,08,45,15.30
2006,07,19,08,46,15.40
2006,07,19,08,47,15.50
2006,07,19,08,48,15.50
2006,07,19,08,49,15.60
2006,07,19,08,50,15.60
2006,07,19,08,51,15.60
2006,07,19,08,52,15.60
2006,07,19,08,53,15.60
2006,07,19,08,54,15.50
2006,07,19,08,55,15.50
2006,07,19,08,56,15.50
2006,07,19,08,57,15.40
2006,07,19,08,58,15.30
2006,07,19,08,59,15.30
2006,07,19,09,00,15.30
2006,07,19,09,01,15.20
2006,07,19,09,02,15.10
2006,07,19,09,03,15.10
2006,07,19,09,04,15.10
2006,07,19,09,05,15.00
2006,07,19,09,06,15.00
2006,07,19,09,07,14.90
2006,07,19,09,08,14.90
2006,07,19,09,09,14.90
2006,07,19,09,10,14.90
2006,07,19,09,11,14.80
2006,07,19,09,12,14.70
2006,07,19,09,13,14.70
2006,07,19,09,14,14.60
2006,07,19,09,15,14.60
2006,07,19,09,16,14.60
2006,07,19,09,17,14.60
2006,07,19,09,18,14.60
2006,07,19,09,19,14.60
2006,07,19,09,20,14.60
2006,07,19,09,21,14.60
2006,07,19,09,22,14.60
2006,07,19,09,23,14.70
2006,07,19,09,24,14.70
2006,07,19,09,25,14.80
2006,07,19,09,26,14.80
2006,07,19,09,27,14.80
2006,07,19,09,28,14.80
2006,07,19,09,29,14.80
2006,07,19,09,30,14.80
2006,07,19,09,31,14.90
2006,07,19,09,32,15.00
2006,07,19,09,33,15.00
2006,07,19,09,34,15.10
2006,07,19,09,35,15.20
2006,07,19,09,36,15.20
2006,07,19,09,37,15.20
2006,07,19,09,38,15.30
2006,07,19,09,39,15.30
2006,07,19,09,40,15.30
2006,07,19,09,41,15.40
2006,07,19,09,42,15.50
2006,07,19,09,43,15.50
2006,07,19,09,44,15.60
2006,07,19,09,45,15.60
2006,07,19,09,46,15.70
2006,07,19,09,47,15.70
2006,07,19,09,48,15.80
2006,07,19,09,49,15.80
2006,07,19,09,50,15.90
2006,07,19,09,51,16.00
2006,07,19,09,52,16.10
2006,07,19,09,53,16.10
2006,07,19,09,54,16.10
2006,07,19,09,55,16.20
2006,07,19,09,56,16.20
2006,07,19,09,57,16.20
2006,07,19,09,58,16.20
2006,07,19,09,59,16.20
2006,07,19,10,00,16.20
2006,07,19,10,01,16.20
2006,07,19,10,02,16.20
2006,07,19,10,03,16.30
2006,07,19,10,04,16.30
2006,07,19,10,05,16.30
2006,07,19,10,06,16.30
2006,07,19,10,07,16.20
2006,07,19,10,08,16.20
2006,07,19,10,09,16.20
2006,07,19,10,10,16.20
2006,07,19,10,11,16.20
2006,07,19,10,12,16.20
2006,07,19,10,13,16.20
2006,07,19,10,14,16.10
2006,07,19,10,15,16.00
2006,07,19,10,16,15.90
2006,07,19,10,17,15.70
2006,07,19,10,18,15.60
2006,07,19,10,19,15.50
2006,07,19,10,20,15.40
2006,07,19,10,21,15.30
2006,07,19,10,22,15.20
2006,07,19,10,23,15.20
2006,07,19,10,24,15.10
2006,07,19,10,25,15.00
2006,07,19,10,26,14.90
2006,07,19,10,27,14.70
2006,07,19,10,28,14.50
2006,07,19,10,29,14.40
2006,07,19,10,30,14.30
2006,07,19,10,31,14.20
2006,07,19,10,32,14.20
2006,07,19,10,33,14.20
2006,07,19,10,34,14.20
2006,07,19,10,35,14.20
2006,07,19,10,36,14.20
2006,07,19,10,37,14.20
2006,07,19,10,38,14.30
2006,07,19,10,39,14.30
2006,07,19,10,40,14.40
2006,07,19,10,41,14.40
2006,07,19,10,42,14.40
2006,07,19,10,43,14.40
2006,07,19,10,44,14.40
2006,07,19,10,45,14.50
2006,07,19,10,46,14.60
2006,07,19,10,47,14.60
2006,07,19,10,48,14.60
2006,07,19,10,49,14.60
2006,07,19,10,50,14.60
2006,07,19,10,51,14.70
2006,07,19,10,52,14.70
2006,07,19,10,53,14.70
2006,07,19,10,54,14.70
2006,07,19,10,55,14.80
2006,07,19,10,56,14.80
2006,07,19,10,57,14.70
2006,07,19,10,58,14.70
2006,07,19,10,59,14.70
2006,07,19,11,00,14.70
2006,07,19,11,01,14.70
2006,07,19,11,02,14.80
2006,07,19,11,03,14.80
2006,07,19,11,04,14.80
2006,07,19,11,05,14.80
2006,07,19,11,06,14.80
2006,07,19,11,07,14.80
2006,07,19,11,08,14.80
2006,07,19,11,09,14.80
2006,07,19,11,10,14.90
2006,07,19,11,11,14.90
2006,07,19,11,12,15.00
2006,07,19,11,13,15.10
2006,07,19,11,14,15.20
2006,07,19,11,15,15.30
2006,07,19,11,16,15.20
2006,07,19,11,17,15.20
2006,07,19,11,18,15.20
2006,07,19,11,19,15.20
2006,07,19,11,20,15.20
2006,07,19,11,21,15.30
2006,07,19,11,22,15.30
2006,07,19,11,23,15.30
2006,07,19,11,24,15.30
2006,07,19,11,25,15.40
2006,07,19,11,26,15.40
2006,07,19,11,27,15.40
2006,07,19,11,28,15.40
2006,07,19,11,29,15.40
2006,07,19,11,30,15.30
2006,07,19,11,31,15.30
2006,07,19,11,32,15.20
2006,07,19,11,33,15.20
2006,07,19,11,34,15.20
2006,07,19,11,35,15.20
2006,07,19,11,36,15.20
2006,07,19,11,37,15.30
2006,07,19,11,38,15.30
2006,07,19,11,39,15.30
2006,07,19,11,40,15.40
2006,07,19,11,41,15.50
2006,07,19,11,42,15.50
2006,07,19,11,43,15.60
2006,07,19,11,44,15.70
2006,07,19,11,45,15.80
2006,07,19,11,46,15.80
2006,07,19,11,47,15.80
2006,07,19,11,48,15.90
2006,07,19,11,49,15.90
2006,07,19,11,50,15.90
2006,07,19,11,51,15.80
2006,07,19,11,52,15.80
2006,07,19,11,53,15.80
2006,07,19,11,54,15.80
2006,07,19,11,55,15.80
2006,07,19,11,56,15.80
2006,07,19,11,57,15.80
2006,07,19,11,58,15.80
2006,07,19,11,59,15.80
2006,07,19,12,00,15.80
2006,07,19,12,01,15.80
2006,07,19,12,02,15.80
2006,07,19,12,03,15.90
2006,07,19,12,04,15.90
2006,07,19,12,05,16.00
2006,07,19,12,06,16.10
2006,07,19,12,07,16.10
2006,07,19,12,08,16.10
2006,07,19,12,09,16.10
2006,07,19,12,10,16.20
2006,07,19,12,11,16.20
2006,07,19,12,12,16.20
2006,07,19,12,13,16.30
2006,07,19,12,14,16.30
2006,07,19,12,15,16.30
2006,07,19,12,16,16.20
2006,07,19,12,17,16.20
2006,07,19,12,18,16.20
2006,07,19,12,19,16.10
2006,07,19,12,20,16.10
2006,07,19,12,21,16.10
2006,07,19,12,22,16.10
2006,07,19,12,23,16.10
2006,07,19,12,24,16.20
2006,07,19,12,25,16.10
2006,07,19,12,26,16.10
2006,07,19,12,27,16.00
2006,07,19,12,28,15.90
2006,07,19,12,29,15.80
2006,07,19,12,30,15.70
2006,07,19,12,31,15.60
2006,07,19,12,32,15.50
2006,07,19,12,33,15.40
2006,07,19,12,34,15.40
2006,07,19,12,35,15.40
2006,07,19,12,36,15.40
2006,07,19,12,37,15.40
2006,07,19,12,38,15.40
2006,07,19,12,39,15.40
2006,07,19,12,40,15.30
2006,07,19,12,41,15.40
2006,07,19,12,42,15.50
2006,07,19,12,43,15.50
2006,07,19,12,44,15.50
2006,07,19,12,45,15.50
2006,07,19,12,46,15.40
2006,07,19,12,47,15.40
2006,07,19,12,48,15.40
2006,07,19,12,49,15.30
2006,07,19,12,50,15.30
2006,07,19,12,51,15.40
2006,07,19,12,52,15.50
2006,07,19,12,53,15.60
2006,07,19,12,54,15.60
2006,07,19,12,55,15.70
2006,07,19,12,56,15.70
2006,07,19,12,57,15.80
2006,07,19,12,58,15.80
2006,07,19,12,59,15.90
2006,07,19,13,00,16.10
2006,07,19,13,01,16.10
2006,07,19,13,02,16.10
2006,07,19,13,03,16.10
2006,07,19,13,04,16.20
2006,07,19,13,05,16.20
2006,07,19,13,06,16.20
2006,07,19,13,07,16.20
2006,07,19,13,08,16.30
2006,07,19,13,09,16.30
2006,07,19,13,10,16.30
2006,07,19,13,11,16.30
2006,07,19,13,12,16.30
2006,07,19,13,13,16.40
2006,07,19,13,14,16.40
2006,07,19,13,15,16.40
2006,07,19,13,16,16.50
2006,07,19,13,17,16.60
2006,07,19,13,18,16.70
2006,07,19,13,19,16.70
2006,07,19,13,20,16.60
2006,07,19,13,21,16.60
2006,07,19,13,22,16.60
2006,07,19,13,23,16.60
2006,07,19,13,24,16.70
2006,07,19,13,25,16.70
2006,07,19,13,26,16.80
2006,07,19,13,27,16.90
2006,07,19,13,28,17.00
2006,07,19,13,29,17.00
2006,07,19,13,30,17.00
2006,07,19,13,31,17.00
2006,07,19,13,32,16.90
2006,07,19,13,33,16.90
2006,07,19,13,34,16.90
2006,07,19,13,35,16.90
2006,07,19,13,36,16.90
2006,07,19,13,37,17.00
2006,07,19,13,38,17.00
2006,07,19,13,39,17.10
2006,07,19,13,40,17.10
2006,07,19,13,41,17.20
2006,07,19,13,42,17.20
2006,07,19,13,43,17.20
2006,07,19,13,44,17.20
2006,07,19,13,45,17.30
2006,07,19,13,46,17.30
2006,07,19,13,47,17.30
2006,07,19,13,48,17.40
2006,07,19,13,49,17.50
2006,07,19,13,50,17.70
2006,07,19,13,51,17.80
2006,07,19,13,52,17.90
2006,07,19,13,53,17.90
2006,07,19,13,54,18.10
2006,07,19,13,55,18.10
2006,07,19,13,56,18.20
2006,07,19,13,57,18.20
2006,07,19,13,58,18.30
2006,07,19,13,59,18.30
2006,07,19,14,00,18.30
2006,07,19,14,01,18.40
2006,07,19,14,02,18.40
2006,07,19,14,03,18.50
2006,07,19,14,04,18.60
2006,07,19,14,05,18.60
2006,07,19,14,06,18.60
2006,07,19,14,07,18.70
2006,07,19,14,08,18.70
2006,07,19,14,09,18.70
2006,07,19,14,10,18.60
2006,07,19,14,11,18.50
2006,07,19,14,12,18.60
2006,07,19,14,13,18.60
2006,07,19,14,14,18.50
2006,07,19,14,15,18.50
2006,07,19,14,16,18.50
2006,07,19,14,17,18.40
2006,07,19,14,18,18.40
2006,07,19,14,19,18.40
2006,07,19,14,20,18.30
2006,07,19,14,21,18.20
2006,07,19,14,22,18.20
2006,07,19,14,23,18.20
2006,07,19,14,24,18.20
2006,07,19,14,25,18.20
2006,07,19,14,26,18.20
2006,07,19,14,27,18.30
2006,07,19,14,28,18.30
2006,07,19,14,29,18.30
2006,07,19,14,30,18.30
2006,07,19,14,31,18.30
2006,07,19,14,32,18.40
2006,07,19,14,33,18.40
2006,07,19,14,34,18.40
2006,07,19,14,35,18.40
2006,07,19,14,36,18.30
2006,07,19,14,37,18.20
2006,07,19,14,38,18.20
2006,07,19,14,39,18.20
2006,07,19,14,40,18.10
2006,07,19,14,41,18.20
2006,07,19,14,42,18.20
2006,07,19,14,43,18.30
2006,07,19,14,44,18.40
2006,07,19,14,45,18.40
2006,07,19,14,46,18.50
2006,07,19,14,47,18.60
2006,07,19,14,48,18.60
2006,07,19,14,49,18.60
2006,07,19,14,50,18.60
2006,07,19,14,51,18.70
2006,07,19,14,52,18.70
2006,07,19,14,53,18.80
2006,07,19,14,54,18.90
2006,07,19,14,55,19.10
2006,07,19,14,56,19.20
2006,07,19,14,57,19.40
2006,07,19,14,58,19.60
2006,07,19,14,59,19.80
2006,07,19,15,00,19.90
2006,07,19,15,01,19.90
2006,07,19,15,02,19.90
2006,07,19,15,03,19.90
2006,07,19,15,04,19.90
2006,07,19,15,05,20.00
2006,07,19,15,06,20.10
2006,07,19,15,07,20.10
2006,07,19,15,08,20.10
2006,07,19,15,09,20.20
2006,07,19,15,10,20.40
2006,07,19,15,11,20.60
2006,07,19,15,12,20.70
2006,07,19,15,13,20.90
2006,07,19,15,14,21.00
2006,07,19,15,15,21.10
2006,07,19,15,16,21.20
2006,07,19,15,17,21.30
2006,07,19,15,18,21.30
2006,07,19,15,19,21.30
2006,07,19,15,20,21.40
2006,07,19,15,21,21.40
2006,07,19,15,22,21.60
2006,07,19,15,23,21.60
2006,07,19,15,24,21.60
2006,07,19,15,25,21.70
2006,07,19,15,26,21.70
2006,07,19,15,27,21.70
2006,07,19,15,28,21.80
2006,07,19,15,29,21.80
2006,07,19,15,30,22.00
2006,07,19,15,31,22.10
2006,07,19,15,32,22.30
2006,07,19,15,33,22.30
2006,07,19,15,34,22.30
2006,07,19,15,35,22.30
2006,07,19,15,36,22.30
2006,07,19,15,37,22.40
2006,07,19,15,38,22.40
2006,07,19,15,39,22.40
2006,07,19,15,40,22.40
2006,07,19,15,41,22.40
2006,07,19,15,42,22.50
2006,07,19,15,43,22.60
2006,07,19,15,44,22.60
2006,07,19,15,45,22.60
2006,07,19,15,46,22.60
2006,07,19,15,47,22.60
2006,07,19,15,48,22.60
2006,07,19,15,49,22.50
2006,07,19,15,50,22.50
2006,07,19,15,51,22.50
2006,07,19,15,52,22.50
2006,07,19,15,53,22.60
2006,07,19,15,54,22.70
2006,07,19,15,55,22.80
2006,07,19,15,56,22.90
2006,07,19,15,57,23.00
2006,07,19,15,58,23.10
2006,07,19,15,59,23.20
2006,07,19,16,00,23.30
2006,07,19,16,01,23.30
2006,07,19,16,02,23.20
2006,07,19,16,03,23.20
2006,07,19,16,04,23.10
2006,07,19,16,05,23.10
2006,07,19,16,06,23.20
2006,07,19,16,07,23.20
2006,07,19,16,08,23.20
2006,07,19,16,09,23.20
2006,07,19,16,10,23.20
2006,07,19,16,11,23.30
2006,07,19,16,12,23.30
2006,07,19,16,13,23.40
2006,07,19,16,14,23.40
2006,07,19,16,15,23.30
2006,07,19,16,16,23.30
2006,07,19,16,17,23.20
2006,07,19,16,18,23.20
2006,07,19,16,19,23.10
2006,07,19,16,20,23.00
2006,07,19,16,21,22.90
2006,07,19,16,22,22.90
2006,07,19,16,23,22.90
2006,07,19,16,24,22.90
2006,07,19,16,25,22.80
2006,07,19,16,26,22.90
2006,07,19,16,27,22.90
2006,07,19,16,28,22.90
2006,07,19,16,29,22.90
2006,07,19,16,30,22.90
2006,07,19,16,31,22.90
2006,07,19,16,32,22.90
2006,07,19,16,33,22.90
2006,07,19,16,34,22.90
2006,07,19,16,35,22.90
2006,07,19,16,36,22.90
2006,07,19,16,37,23.00
2006,07,19,16,38,23.10
2006,07,19,16,39,23.10
2006,07,19,16,40,23.10
2006,07,19,16,41,23.10
2006,07,19,16,42,23.20
2006,07,19,16,43,23.20
2006,07,19,16,44,23.30
2006,07,19,16,45,23.30
2006,07,19,16,46,23.30
2006,07,19,16,47,23.20
2006,07,19,16,48,23.10
2006,07,19,16,49,23.10
2006,07,19,16,50,23.00
2006,07,19,16,51,23.10
2006,07,19,16,52,23.10
2006,07,19,16,53,23.10
2006,07,19,16,54,23.30
2006,07,19,16,55,23.30
2006,07,19,16,56,23.30
2006,07,19,16,57,23.30
2006,07,19,16,58,23.20
2006,07,19,16,59,23.30
2006,07,19,17,00,23.30
2006,07,19,17,01,23.30
2006,07,19,17,02,23.30
2006,07,19,17,03,23.30
2006,07,19,17,04,23.30
2006,07,19,17,05,23.30
2006,07,19,17,06,23.30
2006,07,19,17,07,23.40
2006,07,19,17,08,23.40
2006,07,19,17,09,23.50
2006,07,19,17,10,23.70
2006,07,19,17,11,23.70
2006,07,19,17,12,23.80
2006,07,19,17,13,23.90
2006,07,19,17,14,24.00
2006,07,19,17,15,24.10
2006,07,19,17,16,24.10
2006,07,19,17,17,24.10
2006,07,19,17,18,24.10
2006,07,19,17,19,24.10